loading
|
Showing default

CYGNUS NG-21, 60378

Orbit data source: Space-Track

CYGNUS NG-21, 60378 is a payload satellite owned by NGIS (US) in LEO that was launched on Sun, 04 Aug 2024 UTC via an FALCON 9 launch vehicle from the Air Force Eastern Test Range (AFETR). Payloads include a variety of satellites, spacecraft, and rockets equipped with specific instruments for various scientific and technological missions. These include communications satellites like Starlink; space stations such as the ISS; scientific satellites like the Hubble; Earth observation satellites from companies like Planet Labs, Umbra, and HawkEye 360; GPS; miniature CubeSats for education and research; and military/defense satellites.

Loading next visibility...
Loading greatness...
CYGNUS NG-21 details
Identifier
60378, 2024-139A
Orbit
LEO
Last TLE update13 hours ago
Origin
Flag of USNGIS (US)
ManufacturerNGIS SSG
Mission statusOperational
MissionUnknown
Bus & MotorEPCM, Unknown motor
Mass8,050 kg wet, 2,474 kg dry
Launch date (UTC)
2024-08-04 (1 month ago)
Launch vehicle
FALCON 9
Launch site
Air Force Eastern Test Range (AFETR)
Object type
Payload
Rocket body
Debris
Radar Cross SectionLarge (>1 m²)

Expand to show TLE details & history

TLE from 13 hours ago
0 CYGNUS NG-21
1 60378U 24139A   24261.34829556  .00045896  00000-0  82847-3 0  9994
2 60378  51.6370 218.8743 0007439   1.2887 358.8120 15.49245889  6705
Epoch: 2024-09-17T08:21Z
Definitive object data (Epoch: 2024-09-17T08:21:32.736Z)
Latitude0.00002°
Longitude96.72368°
Altitude414.617 km
Speed7.666 km/s
True Right ascension14h 35m 29s
True Declination0° 00' 00"
Sunlit
Object was in daylight at TLE epoch
Predictive object data (real-time)
Latitude36.68948°
Longitude-121.85503°
Altitude424.587 km
Speed7.66 km/s
Apparent Right ascension01h 00m 34s
Apparent Declination0° 09' 26"
Sunlit
Object is in full shadow
Predictive observer data (real-time)
Local Sidereal Time14:06:58
Azimuth24.995° NE
Elevation-47.457°
Doppler factor1
Orbital elements
Apogee424.496 km
Perigee414.382 km
Semi-major axis6,797.576 km
Eccentricity0.0007439
Inclination51.637°
RAAN218.8743°
Arg. of periapsis1.2887°
True anomaly358.81023°
Mean anomaly358.812°
Eccentric anomaly358.81112°
Mean motion3.87268 °/min
BSTAR0.00082847
Period92.96 mins
No data available
Other satellites on launch #139 in the year 2024 (2024-08-04 UTC)

CYGNUS NG-21 Visibility forecast

Observer location: 39.9160978°, -105.1181434

CYGNUS NG-21 is not visible in the next 10 days
Span
Click to sort rows by Start time (UTC) header in descending order
Start Az.
Max El. time (UTC)
Max El. Az.
Max El.
End time (UTC)
End Az.